Location: Caltech
(34.1382°N, 118.1253°W)
Time: 15:04:32
(UTC-07:00)

Transit 2A - Visible Passes

Search period start: 28 May 2016 00:00
Search period end: 07 June 2016 00:00
Orbit: 593 x 967 km, 66.7° (Epoch: 27 May)

Date Brightness Start Highest point End Pass type
(mag) Time Alt. Az. Time Alt. Az. Time Alt. Az.
03 Jun 7.9 04:41:30 10° SSE 04:45:41 27° ESE 04:50:15 10° NE visible
04 Jun 8.3 04:08:41 10° SE 04:11:59 18° ESE 04:15:30 10° ENE visible
05 Jun 8.6 03:37:10 10° ESE 03:38:20 11° E 03:39:32 10° E visible
06 Jun 6.2 04:41:37 10° SSW 04:46:39 74° ESE 04:52:18 10° NNE visible
